User: anonymous
Location: Mount Wilson Observatory
(34.2257°N, 118.0571°W)
Time: 18:35:12
(UTC-07:00)
Language:

ATLAS 3B CENTAUR R/B - Orbit

View from above orbital plane
View from above orbital plane
View from above satellite
View from above satellite

Ground track
Ground track

The orbit data is extracted from the following two-line orbital elements,

1 28118U 03057B   14294.18079633  .00106528  00000-0  25662-2 0  8334
2 28118 028.1349 234.1002 3808269 154.3251 349.4709 07.87141779205439
Epoch (UTC): 21 October 2014 04:20:20
Eccentricity: 0.3808269
inclination: 28.1349°
perigee height: 231 km
apogee height: 8362 km
right ascension of ascending node: 234.1002°
argument of perigee: 154.3251°
revolutions per day: 7.87141779
mean anomaly at epoch: 349.4709°
orbit number at epoch: 20543

The dashed part of the orbit path shows where the satellite is in the earth's shadow,  

DLR